AirNav   Everest Fuels
 
 1042 users online  

8PA2 Ronca Heliport
Bethlehem, Pennsylvania, USA

GOING TO BETHLEHEM?


FAA INFORMATION EFFECTIVE 18 JUNE 2020

Location

FAA Identifier: 8PA2
Lat/Long: 40-41-03.3520N 075-20-02.6460W
40-41.055867N 075-20.044100W
40.6842644,-75.3340683
(estimated)
Elevation: 375 ft. / 114 m (estimated)
Variation: 12W (1990)
From city: 2 miles NE of BETHLEHEM, PA
Time zone: UTC -4 (UTC -5 during Standard Time)
Zip code: 18020

Heliport Operations

Heliport use: Private use. Permission required prior to landing
Activation date: 01/1992
Control tower: no
ARTCC: NEW YORK CENTER
FSS: WILLIAMSPORT FLIGHT SERVICE STATION
Attendance: UNATNDD
Wind indicator: lighted
Segmented circle: no
Lights: PHONE REQ

Heliport Communications

WX ASOS at ABE (5 nm W): 126.975 (610-266-3579)
WX AWOS-3 at XLL (10 nm SW): 127.875 (610-231-3111)
WX AWOS-3 at UKT (15 nm S): 119.475 (215-538-7610)
WX AWOS-3 at N40 (18 nm SE): 121.725
WX AWOS-3 at CKZ (18 nm S): 126.325 (215-257-7291)

Nearby radio navigation aids

VOR radial/distance  VOR name  Freq  Var
FJCr125/6.1ALLENTOWN VORTAC117.5010W
ETXr078/17.1EAST TEXAS VOR/DME110.2009W
BWZr265/24.3BROADWAY VOR/DME114.2011W
SBJr293/27.6SOLBERG VOR/DME112.9010W
STWr239/28.2STILLWATER VOR/DME109.6011W
PTWr029/29.6POTTSTOWN VORTAC116.5009W
ARDr333/32.4YARDLEY VOR/DME108.2010W
LVZr165/38.8WILKES-BARRE VORTAC111.6010W

 
NDB name  Hdg/Dist  Freq  Var  ID
AMBLER008/33.627512WING .. -. --.

Heliport Services

Runway Information

Helipad H1

Dimensions: 60 x 60 ft. / 18 x 18 m
Surface: turf
Runway edge lights: FLD
Latitude: 40-41.055867N
Longitude: 075-20.044100W
Elevation: 375.0 ft.
Traffic pattern: leftleft

Heliport Ownership and Management from official FAA records

Ownership: Privately-owned
Owner: MICHAEL F. RONCA & SONS INC
179 MIKRON RD
BETHLEHEM, PA 18020
Phone (610) 759-5100
Manager: MICHAEL RONCA
179 MIKRON RD
BETHLEHEM, PA 18020
Phone (610) 759-5100

Additional Remarks

FOR FLOOD LGTS CALL 610-972-2009.
FOR CD CTC ALLENTOWN APCH AT 800-728-6322.

Instrument Procedures

There are no published instrument procedures at 8PA2.

Some nearby airports with instrument procedures:

KABE - Lehigh Valley International Airport (5 nm W)
N43 - Braden Airpark (5 nm NE)
KXLL - Allentown Queen City Municipal Airport (10 nm SW)
KUKT - Quakertown Airport (15 nm S)
N85 - Alexandria Airport (15 nm E)
N40 - Sky Manor Airport (18 nm SE)
KCKZ - Pennridge Airport (18 nm S)
 
Loc | Ops | Rwys | IFR | FBO | Links
Com | Nav | Svcs | Stats | Notes
Area around 8PA2 (Ronca Heliport)
 
Road maps at: MapQuest Bing Google
 
Aerial photo
No photo
 
Sectional chart

 
Airport distance calculator
Flying to Ronca Heliport? Find the distance to fly.

From to 8PA2

Sunrise and sunset
Times for 02-Jul-2020
 Local
(UTC-4)
 Zulu
(UTC)
Morning civil twilight05:0309:03
Sunrise05:3609:36
Sunset20:3500:35
Evening civil twilight21:0801:08

Current date and time
Zulu (UTC)  02-Jul-2020 22:17:04
Local (UTC-4)  02-Jul-2020 18:17:04
 
METAR
KABE 
6nm W 
022151Z 35010KT 10SM CLR 32/16 A2981 RMK AO2 SLP091 T03170161
KXLL 
10nm SW 
022155Z AUTO 34010G15KT 10SM CLR 32/17 A2983 RMK AO2
KUKT 
15nm S 
022200Z AUTO 31006KT 10SM CLR 32/17 A2982 RMK A01
KCKZ 
18nm S 
022155Z AUTO 33006KT 10SM FEW070 32/16 A2983 RMK AO2
TAF
KABE 
6nm W 
021720Z 0218/0318 34009KT P6SM SCT060 FM030000 32006KT P6SM SCT200 FM031400 32005KT P6SM SCT100
NOTAMs
Click for the latest NOTAMs
NOTAMs are issued by the DoD/FAA and will open in a separate window not controlled by AirNav.

 

 
 

Would you like to see your business listed on this page?

 If your business provides an interesting product or service to pilots, flight crews, aircraft, or users of the Ronca Heliport, you should consider listing it here.  To start the listing process, click on the button below
 
Add a business
 

Other Pages about Ronca Heliport

Update a link
 
Copyright © AirNav, LLC. All rights reserved. Privacy Policy  Contact